Ukiah, CA

11:02 AM PDT on September 30, 2016 (GMT -0700)
Ukiah Municipal

Weather History for KUKI - December, 2011

Change the Weather History Date:

Sunday, December 18, 2011

  Actual Average Record
Temperature  
Mean Temperature 44 °F 45 °F  
Max Temperature 59 °F 54 °F 74 °F (1958)
Min Temperature 28 °F 36 °F 19 °F (1924)
Degree Days  
Heating Degree Days 21 20  
Month to date heating degree days 359 349  
Since 1 July heating degree days 935 972  
Cooling Degree Days 0 0  
Month to date cooling degree days 0 0  
Year to date cooling degree days 895 835  
Moisture  
Dew Point 33 °F    
Average Humidity 67    
Maximum Humidity 96    
Minimum Humidity 37    
Precipitation  
Precipitation 0.00 in 0.27 in 2.29 in (2005)
Month to date precipitation 0.30 3.62  
Year to date precipitation 28.63 34.02  
Since 1 July precipitation 6.59  
Snow  
Snow 0.00 in - - ()
Month to date snowfall 0.0  
Since 1 July snowfall 0.0  
Snow Depth 0.00 in    
Sea Level Pressure  
Sea Level Pressure 30.14 in    
Wind  
Wind Speed 0 mph (WNW)    
Max Wind Speed 4 mph    
Max Gust Speed -    
Visibility 10 miles    
Events      
T = Trace of Precipitation, MM = Missing Value Source: NWS Daily Summary

Daily Weather History Graph

Daily Weather History Graph

Search for Another Location

Airport or City:

Trip Planner

Search our weather history database for the weather conditions in past years. The results will help you decide how hot, cold, wet, or windy it might be!

Date:

Astronomy

Dec. 18, 2011 Rise Set
Actual Time 7:26 AM PST 4:52 PM PST
Civil Twilight 6:56 AM PST 5:22 PM PST
Nautical Twilight 6:23 AM PST 5:55 PM PST
Astronomical Twilight 5:50 AM PST 6:28 PM PST
Moon 12:36 AM PST (12/18) 12:18 PM PST (12/18)
Length of Visible Light 10h 25m
Length of Day
9h 25m
Last Quarter, 41% of the Moon is Illuminated
Dec 18
Last Quarter
Dec 24
New
Dec 31
First Quarter
Jan 8
Full
Jan 16
Last Quarter

Hourly Weather History & Observations

Time (PST) Temp. Windchill Dew Point Humidity Pressure Visibility Wind Dir Wind Speed Gust Speed Precip Events Conditions
12:56 AM 33.8 °F - 32.0 °F 93% 30.13 in 10.0 mi Calm Calm - N/A   Clear
1:56 AM 34.0 °F - 32.0 °F 92% 30.13 in 10.0 mi Calm Calm - N/A   Clear
2:56 AM 33.1 °F - 30.9 °F 92% 30.14 in 9.0 mi Calm Calm - N/A   Clear
3:56 AM 30.9 °F - 28.9 °F 92% 30.14 in 10.0 mi Calm Calm - N/A   Clear
4:56 AM 30.9 °F - 28.9 °F 92% 30.14 in 8.0 mi Calm Calm - N/A   Clear
5:56 AM 32.0 °F - 28.9 °F 88% 30.16 in 10.0 mi Calm Calm - N/A   Clear
6:41 AM 28.4 °F - 26.6 °F 93% 30.18 in 9.0 mi Calm Calm - N/A   Partly Cloudy
6:56 AM 28.9 °F - 27.0 °F 92% 30.19 in 7.0 mi Calm Calm - N/A   Partly Cloudy
7:56 AM 28.9 °F - 27.0 °F 92% 30.21 in 10.0 mi Calm Calm - N/A   Clear
8:56 AM 33.1 °F - 32.0 °F 96% 30.22 in 10.0 mi Calm Calm - N/A   Clear
9:56 AM 39.0 °F - 34.0 °F 82% 30.21 in 10.0 mi Calm Calm - N/A   Clear
10:56 AM 46.0 °F - 35.1 °F 66% 30.20 in 10.0 mi Calm Calm - N/A   Clear
11:56 AM 51.1 °F - 36.0 °F 56% 30.17 in 10.0 mi Calm Calm - N/A   Clear
12:56 PM 55.0 °F - 35.1 °F 47% 30.14 in 10.0 mi Calm Calm - N/A   Clear
1:56 PM 57.9 °F - 33.1 °F 39% 30.11 in 10.0 mi Calm Calm - N/A   Clear
2:56 PM 59.0 °F - 33.8 °F 39% 30.10 in 10.0 mi Calm Calm - N/A   Clear
3:56 PM 53.1 °F - 37.9 °F 57% 30.10 in 10.0 mi WNW 3.5 mph - N/A   Clear
4:56 PM 48.9 °F - 37.9 °F 66% 30.11 in 10.0 mi Calm Calm - N/A   Clear
5:56 PM 46.4 °F - 39.2 °F 76% 30.10 in 10.0 mi Calm Calm - N/A   Clear
6:56 PM 42.1 °F - 37.9 °F 85% 30.10 in 10.0 mi Calm Calm - N/A   Clear
7:56 PM 41.0 °F - 37.0 °F 86% 30.12 in 10.0 mi Calm Calm - N/A   Clear
8:56 PM 39.0 °F 36.8 °F 36.0 °F 89% 30.12 in 10.0 mi WNW 3.5 mph - N/A   Clear
9:56 PM 37.0 °F - 35.1 °F 93% 30.11 in 7.0 mi Calm Calm - N/A   Clear
10:56 PM 34.0 °F - 32.0 °F 92% 30.12 in 10.0 mi Calm Calm - N/A   Clear
11:56 PM 33.1 °F - 32.0 °F 96% 30.12 in 10.0 mi Calm Calm - N/A   Clear